Location: Rogalle
(42.8890°N, 1.1916°E)
Time: 10:12:01
(UTC+00:00)

Meteor 1-26 Rocket - Pass Details

Date: 13 December 2025
Orbit: 807 x 926 km, 81.3° (Epoch: 21 January)

Event Time Altitude Azimuth Distance (km) Brightness Sun altitude
Rises 17:39:22 0° 173° (S) 3,328 7.5 -13.8°
Reaches altitude 10° 17:41:48 10° 168° (SSE) 2,392 6.6 -14.2°
Maximum altitude 17:46:59 51° 94° (E) 1,015 4.3 -15.1°
Drops below altitude 10° 17:52:11 10° 20° (NNE) 2,401 6.2 -16.0°
Enters shadow 17:52:42 - 19° (NNE) 2,592 6.4 -16.1°
